Prescott, AZ

8:23 PM MST on August 25, 2019 (GMT -0700)
Love

Weather History for KPRC - July, 2019

Change the Weather History Date:

Thursday, July 18, 2019

  Actual Average Record
Temperature  
Mean Temperature 79 °F 76 °F  
Max Temperature 94 °F 89 °F 102 °F (2005)
Min Temperature 64 °F 63 °F 56 °F (2000)
Degree Days  
Heating Degree Days 0    
Month to date heating degree days 0  
Since 1 July heating degree days 0  
Cooling Degree Days 14    
Month to date cooling degree days 203  
Year to date cooling degree days 397  
Growing Degree Days 28 (Base 50)    
Moisture  
Dew Point 43 °F    
Average Humidity 29    
Maximum Humidity 60    
Minimum Humidity 15    
Precipitation  
Precipitation 0.00 in 0.08 in 2.83 in (2015)
Month to date precipitation 0.06 0.99  
Year to date precipitation 6.85 5.92  
Sea Level Pressure  
Sea Level Pressure 29.85 in    
Wind  
Wind Speed 8 mph (SW)    
Max Wind Speed 18 mph    
Max Gust Speed 27 mph    
Visibility 10 miles    
Events      
T = Trace of Precipitation, MM = Missing Value Source: NWS Daily Summary

Daily Weather History Graph

Daily Weather History Graph

Search for Another Location

Airport or City:

Astronomy

Jul. 18, 2019 Rise Set
Actual Time 5:29 AM MST 7:41 PM MST
Civil Twilight 5:01 AM MST 8:10 PM MST
Nautical Twilight 4:26 AM MST 8:45 PM MST
Astronomical Twilight 3:48 AM MST 9:23 PM MST
Moon 9:12 PM MST (7/18) 7:01 AM MST (7/18)
Length of Visible Light 15h 09m
Length of Day
14h 11m
Waning Gibbous, 97% of the Moon is Illuminated
Jul 18
Waning Gibbous
Jul 24
Last Quarter
Jul 31
New
Aug 7
First Quarter
Aug 15
Full

Hourly Weather History & Observations

Time (MST) Temp. Dew Point Humidity Pressure Visibility Wind Dir Wind Speed Gust Speed Precip Events Conditions
12:53 AM 73.9 °F 50.0 °F 43% 29.89 in 10.0 mi SW 5.8 mph - N/A   Clear
1:53 AM 73.0 °F 50.0 °F 44% 29.89 in 10.0 mi South 6.9 mph - N/A   Clear
2:53 AM 71.1 °F 50.0 °F 47% 29.88 in 10.0 mi South 5.8 mph - N/A   Clear
3:53 AM 70.0 °F 50.0 °F 49% 29.89 in 10.0 mi South 4.6 mph - N/A   Clear
4:53 AM 66.0 °F 51.1 °F 59% 29.90 in 10.0 mi South 3.5 mph - N/A   Clear
5:53 AM 64.9 °F 50.0 °F 58% 29.92 in 10.0 mi SSW 5.8 mph - N/A   Clear
6:53 AM 71.1 °F 50.0 °F 47% 29.91 in 10.0 mi South 5.8 mph - N/A   Clear
7:53 AM 77.0 °F 50.0 °F 39% 29.91 in 10.0 mi Calm Calm - N/A   Clear
8:53 AM 80.1 °F 48.9 °F 34% 29.91 in 10.0 mi SE 3.5 mph - N/A   Clear
9:53 AM 84.9 °F 46.0 °F 26% 29.91 in 10.0 mi Variable 6.9 mph - N/A   Clear
10:53 AM 88.0 °F 45.0 °F 22% 29.89 in 10.0 mi Variable 3.5 mph - N/A   Clear
11:53 AM 91.0 °F 37.9 °F 15% 29.87 in 10.0 mi WSW 13.8 mph 18.4 mph N/A   Clear
12:53 PM 91.0 °F 39.0 °F 16% 29.86 in 10.0 mi WSW 11.5 mph 19.6 mph N/A   Clear
1:53 PM 91.0 °F 39.0 °F 16% 29.84 in 10.0 mi West 12.7 mph 18.4 mph N/A   Clear
2:53 PM 93.0 °F 39.0 °F 15% 29.82 in 10.0 mi West 13.8 mph 26.5 mph N/A   Clear
3:53 PM 91.9 °F 37.9 °F 15% 29.80 in 10.0 mi WSW 13.8 mph - N/A   Clear
4:53 PM 91.9 °F 39.0 °F 16% 29.80 in 10.0 mi West 13.8 mph - N/A   Clear
5:53 PM 89.1 °F 37.9 °F 16% 29.80 in 10.0 mi West 13.8 mph - N/A   Clear
6:53 PM 88.0 °F 37.9 °F 17% 29.79 in 10.0 mi WSW 12.7 mph - N/A   Clear
7:53 PM 84.0 °F 37.0 °F 19% 29.80 in 10.0 mi WSW 9.2 mph - N/A   Clear
8:53 PM 81.0 °F 36.0 °F 20% 29.81 in 10.0 mi West 6.9 mph - N/A   Clear
9:53 PM 77.0 °F 37.9 °F 24% 29.81 in 10.0 mi South 8.1 mph - N/A   Clear
10:53 PM 77.0 °F 37.0 °F 24% 29.80 in 10.0 mi SSW 8.1 mph - N/A   Clear
11:53 PM 75.0 °F 37.0 °F 25% 29.80 in 10.0 mi SSW 8.1 mph - N/A   Clear